[[{"header":{"parameterUnit":"m.s-1","parameterCategory":1,"la1":30.2991,"la2":30.254,"lo1":-89.0895,"lo2":-89.0444,"dy":0.0017,"dx":0.0017,"nx":28,"ny":28,"refTime":"2024-07-04T09:00:00:Z","depth":0,"parameterNumber":2,"parameterNumberName":"U-component_of_WINDS"},"data":[0,0,0,0,0,0,0,0,0,0,0,0,0,0,0,0,0,0,0,0,0,0,0,0,0,0,0,0,0,0,0,0,0,0,0,0,0,0,0,0,0,0,0,0,0,0,0,0,0,0,0,0,0,0,0,0,0,0,0.9136,0.9137,0,0.9242,0.9243,0.9244,0.9297,0.9297,0.9297,0.9297,0.9407,0.941,0.9413,0,0,0,0,0,0,0,0,0,0,0,0,0,0.8979,0.8981,0.9136,0.9137,0.9138,0.9242,0.9243,0.9245,0.9297,0.9297,0.9297,0.9297,0.9406,0.9409,0.9413,0,0,0,0,0,0,0,0,0,0,0,0,0,0.9062,0.8982,0.9135,0.9177,0.9182,0.9241,0.9243,0.9245,0.9297,0.9297,0.9297,0.9298,0.9405,0.9409,0.9413,0.944,0,0,0.9427,0.9428,0,0,0,0,0,0,0,0,0.9057,0.9068,0.917,0.9174,0.918,0.9256,0.9228,0.931,0.9297,0.9254,0.9297,0.9298,0.9357,0.9365,0.9385,0.9445,0.9449,0.9427,0.943,0.9431,0.9433,0,0,0,0,0,0,0,0.9051,0.9064,0.9178,0.9171,0.9177,0.9191,0.9202,0.9244,0.9304,0.9257,0.9262,0.9273,0.936,0.9381,0.9388,0.9451,0.9427,0.9431,0.9433,0.9435,0.9538,0.9538,0,0,0,0,0,0,0.9039,0.9058,0.9174,0.9181,0.9117,0.9193,0.9207,0.9232,0.9303,0.9314,0.9273,0.9275,0.9373,0.9383,0.9392,0.9428,0.9431,0.9436,0.9438,0.9537,0.9538,0.9538,0,0,0,0,0,0,0.9035,0.9049,0.917,0.9121,0.9137,0.9196,0.9224,0.9234,0.9255,0.9315,0.9326,0.9284,0.9374,0.9386,0.9427,0.9432,0.9437,0.9441,0.9537,0.9537,0.9538,0.9498,0,0,0,0,0,0,0.9031,0.9047,0.9058,0.9121,0.914,0.9203,0.9224,0.9236,0.9262,0.9266,0.9328,0.9338,0.9375,0.9421,0.9432,0.9438,0.9445,0.9537,0.9537,0.9538,0.95,0.9497,0.9495,0,0,0,0,0,0.9025,0.9043,0.9058,0.9072,0.9154,0.9203,0.9214,0.9255,0.9262,0.9274,0.9312,0.9337,0.943,0.9424,0.9437,0.9445,0.9537,0.9537,0.9538,0.95,0.9498,0.9495,0,0,0,0,0,0,0.8979,0.9052,0.9069,0.9108,0.9149,0.9212,0.9228,0.9251,0.9291,0.9293,0.9343,0.9356,0.9393,0.9423,0.9416,0.9474,0.9486,0.9489,0.9453,0.9451,0.9449,0.9441,0.9448,0,0,0,0,0,0.8973,0.9007,0.9069,0.9097,0.9117,0.9168,0.9191,0.9219,0.9264,0.9282,0.9324,0.9366,0.9405,0.943,0.9469,0.9504,0.9518,0.9516,0.9514,0.9512,0.9513,0.9534,0.9534,0.9539,0.9539,0.9539,0,0,0.8962,0.9006,0.9024,0.9089,0.9124,0.9158,0.9183,0.9218,0.9244,0.9287,0.9329,0.9361,0.9412,0.945,0.9469,0.9476,0.9515,0.9512,0.951,0.9513,0.9534,0.9534,0.9533,0.9539,0.9539,0.9539,0,0,0.8958,0.8995,0.9022,0.9057,0.911,0.9144,0.915,0.921,0.9233,0.9276,0.9309,0.934,0.9406,0.9441,0.9467,0.9477,0.9501,0.9488,0.9477,0.9496,0.9496,0.9496,0.9499,0.95,0.949,0.949,0.949,0,0.8937,0.899,0.9033,0.9067,0.9094,0.9135,0.9163,0.9195,0.9257,0.9275,0.9283,0.9366,0.9403,0.945,0.9452,0.9472,0.9481,0.9481,0.9493,0.9493,0.9494,0.9497,0.9498,0.9488,0.9488,0.9488,0.9489,0,0.8962,0.8998,0.9013,0.9073,0.9102,0.9133,0.9181,0.9205,0.923,0.9264,0.9306,0.9352,0.9401,0.9414,0.944,0.9465,0.9468,0.9483,0.9496,0.949,0.9495,0.9496,0.9485,0.9486,0.9487,0.9487,0,0,0.8932,0.9015,0.902,0.9048,0.9109,0.9138,0.917,0.9218,0.9238,0.9279,0.9308,0.9362,0.9377,0.9407,0.9436,0.9453,0.9457,0.9467,0.9469,0.9463,0.9488,0.9476,0.9477,0.9474,0.9474,0.9474,0.9483,0,0.8937,0.8997,0.9037,0.9081,0.9115,0.9154,0.9182,0.9222,0.9254,0.9288,0.9323,0.9361,0.9378,0.9396,0.9415,0.9453,0.9463,0.9453,0.95,0.9501,0.9486,0.9479,0.9466,0.9473,0.9485,0.9486,0.9486,0,0.8951,0.8992,0.9039,0.9097,0.9112,0.9137,0.9184,0.9215,0.9262,0.9284,0.9317,0.9347,0.9382,0.9392,0.9441,0.9433,0.9455,0.9477,0.9478,0.9484,0.9493,0.9484,0.9476,0.9477,0.9489,0.9489,0.9489,0,0.8924,0.8991,0.9028,0.905,0.9118,0.9135,0.9164,0.9211,0.9237,0.9278,0.9295,0.934,0.9364,0.9398,0.9439,0.9442,0.9484,0.9497,0.9504,0.9502,0.9511,0.951,0.9505,0.9525,0.9525,0.9525,0.9525,0,0.8926,0.8953,0.9017,0.904,0.9071,0.9117,0.9147,0.918,0.9221,0.925,0.9287,0.9314,0.9367,0.94,0.9433,0.9469,0.948,0.9498,0.9507,0.9495,0.9493,0.951,0.951,0.9525,0.9525,0.9525,0.9525,0,0.8901,0.8945,0.8988,0.9049,0.9065,0.9086,0.9138,0.9161,0.9195,0.9232,0.9244,0.9297,0.9338,0.9382,0.9439,0.946,0.9495,0.9507,0.9479,0.9483,0.9487,0.9486,0.9494,0.9497,0.9514,0.9514,0.9514,0,0.8899,0.8921,0.8985,0.9007,0.9035,0.9071,0.9098,0.9144,0.917,0.9225,0.9241,0.9285,0.9323,0.9387,0.943,0.9474,0.9487,0.9486,0.9493,0.9481,0.9486,0.9484,0.9487,0.9484,0.9484,0.9483,0.9483,0,0.8891,0.8912,0.8949,0.8994,0.9025,0.9062,0.9101,0.9117,0.9171,0.9198,0.9241,0.927,0.9327,0.937,0.9419,0.9449,0.9475,0.948,0.9484,0.9472,0.9455,0.9464,0.9473,0.948,0.948,0.9481,0.9481,0.9481,0.8878,0.8899,0.8947,0.8987,0.9021,0.9057,0.9082,0.9119,0.9155,0.9205,0.923,0.9272,0.9318,0.9386,0.9415,0.9449,0.9457,0.9462,0.9464,0.9464,0.9461,0.945,0.9458,0.9458,0.9458,0.9458,0.9458,0,0.8871,0.8904,0.894,0.8994,0.9025,0.9047,0.9091,0.9116,0.9153,0.9194,0.923,0.9278,0.932,0.9367,0.9412,0.943,0.9443,0.944,0.9439,0.9445,0.9452,0.9444,0.9429,0.9429,0.9429,0.9429,0.9429,0.9429,0.8871,0.8908,0.8934,0.8989,0.9022,0.9063,0.9087,0.9119,0.9152,0.9205,0.924,0.927,0.9314,0.9362,0.9401,0.9414,0.9428,0.9422,0.9438,0.9443,0.9445,0.9447,0.944,0.9425,0.9425,0.9429,0.9429,0.9429]},{"header":{"parameterUnit":"m.s-1","parameterCategory":1,"la1":30.2991,"la2":30.254,"lo1":-89.0895,"lo2":-89.0444,"dy":0.0017,"dx":0.0017,"nx":28,"ny":28,"refTime":"2024-07-04T09:00:00:Z","depth":0,"parameterNumber":3,"parameterNumberName":"V-component_of_WINDS"},"data":[0,0,0,0,0,0,0,0,0,0,0,0,0,0,0,0,0,0,0,0,0,0,0,0,0,0,0,0,0,0,0,0,0,0,0,0,0,0,0,0,0,0,0,0,0,0,0,0,0,0,0,0,0,0,0,0,0,0,3.8803,3.8803,0,3.8786,3.8786,3.8786,3.8779,3.8779,3.8779,3.8779,3.8759,3.8758,3.8758,0,0,0,0,0,0,0,0,0,0,0,0,0,3.8827,3.8827,3.8803,3.8803,3.8803,3.8786,3.8786,3.8786,3.8779,3.8779,3.8779,3.8779,3.8759,3.8758,3.8758,0,0,0,0,0,0,0,0,0,0,0,0,0,3.8814,3.8827,3.8803,3.8798,3.8797,3.8786,3.8786,3.8786,3.8779,3.8779,3.8779,3.878,3.8759,3.8758,3.8757,3.875,0,0,3.8755,3.8754,0,0,0,0,0,0,0,0,3.8815,3.8813,3.8799,3.8798,3.8797,3.8785,3.8787,3.8774,3.8779,3.8786,3.8779,3.878,3.8767,3.8766,3.8762,3.8749,3.8748,3.8755,3.8754,3.8754,3.8753,0,0,0,0,0,0,0,3.8816,3.8814,3.8796,3.8798,3.8798,3.8795,3.8793,3.8784,3.8776,3.8785,3.8785,3.8783,3.8767,3.8763,3.8762,3.8748,3.8755,3.8754,3.8753,3.8753,3.8728,3.8728,0,0,0,0,0,0,3.8818,3.8815,3.8797,3.8796,3.8807,3.8795,3.8793,3.8789,3.8776,3.8775,3.8783,3.8783,3.8765,3.8763,3.8761,3.8752,3.8754,3.8753,3.8752,3.8728,3.8728,3.8728,0,0,0,0,0,0,3.8819,3.8817,3.8798,3.8805,3.8803,3.8794,3.879,3.8788,3.8785,3.8775,3.8773,3.8781,3.8765,3.8762,3.8753,3.8751,3.8752,3.8752,3.8728,3.8728,3.8728,3.8733,0,0,0,0,0,0,3.882,3.8817,3.8815,3.8805,3.8802,3.8791,3.879,3.8788,3.8784,3.8783,3.8772,3.877,3.8764,3.8755,3.8752,3.875,3.8751,3.8729,3.8728,3.8728,3.8733,3.8733,3.8733,0,0,0,0,0,3.882,3.8816,3.8815,3.8812,3.8799,3.8791,3.8789,3.8783,3.8783,3.8781,3.8774,3.8771,3.8752,3.8754,3.8751,3.8748,3.8729,3.8728,3.8728,3.8733,3.8733,3.8733,0,0,0,0,0,0,3.8824,3.8815,3.8813,3.8806,3.8799,3.879,3.8786,3.8784,3.8776,3.8776,3.8768,3.8766,3.8757,3.8752,3.8754,3.874,3.874,3.8739,3.8745,3.8744,3.8745,3.8746,3.875,0,0,0,0,0,3.8824,3.8819,3.8811,3.8805,3.8802,3.8795,3.8791,3.8787,3.878,3.8777,3.8769,3.8762,3.8754,3.8749,3.8741,3.8732,3.873,3.8729,3.8729,3.8729,3.8728,3.8724,3.8723,3.8727,3.8727,3.8727,0,0,3.8824,3.8818,3.8815,3.8806,3.88,3.8794,3.8792,3.8786,3.8781,3.8775,3.8767,3.8761,3.8752,3.8743,3.8739,3.8738,3.8727,3.8729,3.8729,3.8728,3.8723,3.8723,3.8723,3.8727,3.8727,3.8727,0,0,3.8821,3.8816,3.8811,3.8806,3.8798,3.8794,3.8793,3.8784,3.878,3.8772,3.8767,3.8761,3.8748,3.8741,3.8736,3.8732,3.8728,3.8729,3.8729,3.8724,3.8724,3.8724,3.8722,3.8721,3.8729,3.8729,3.8729,0,3.8822,3.8813,3.8809,3.8803,3.8798,3.8794,3.8788,3.8783,3.8773,3.877,3.877,3.8753,3.8747,3.8737,3.8736,3.8732,3.873,3.873,3.8725,3.8724,3.8724,3.8722,3.8722,3.8729,3.8729,3.8729,3.8729,0,3.8814,3.8809,3.8805,3.8797,3.8792,3.8786,3.878,3.8776,3.8773,3.8768,3.8759,3.8751,3.8742,3.8739,3.8735,3.8728,3.8728,3.8726,3.8726,3.8724,3.8722,3.8721,3.8729,3.8729,3.8729,3.8729,0,0,3.8813,3.8802,3.8801,3.8797,3.8789,3.8784,3.8778,3.877,3.8766,3.8759,3.8754,3.8743,3.8742,3.8736,3.8732,3.8728,3.8724,3.8726,3.8726,3.8726,3.8716,3.8717,3.8717,3.8722,3.8722,3.8722,3.8717,0,3.8808,3.8798,3.8794,3.8786,3.878,3.8776,3.8771,3.8765,3.876,3.8754,3.8748,3.8741,3.874,3.8736,3.8732,3.8726,3.8722,3.8726,3.8716,3.8716,3.8718,3.8716,3.8717,3.8713,3.8716,3.8716,3.8716,0,3.8802,3.8796,3.8788,3.878,3.8778,3.8773,3.8766,3.876,3.8753,3.875,3.8744,3.874,3.8733,3.8733,3.8722,3.8725,3.8721,3.8717,3.8717,3.8715,3.8716,3.8714,3.8711,3.8711,3.8715,3.8715,3.8715,0,3.8802,3.8792,3.8786,3.8782,3.8774,3.877,3.8766,3.8759,3.8755,3.8748,3.8745,3.8737,3.8733,3.8726,3.872,3.8721,3.871,3.8709,3.8707,3.8707,3.8704,3.8705,3.8701,3.8702,3.8702,3.8702,3.8702,0,3.8797,3.8792,3.8785,3.8781,3.8776,3.877,3.8764,3.876,3.8754,3.8748,3.8744,3.8739,3.8731,3.8724,3.8719,3.8711,3.8709,3.8706,3.8705,3.8706,3.8707,3.8703,3.8703,3.8702,3.8702,3.8702,3.8702,0,3.8796,3.8791,3.8784,3.8777,3.8775,3.8771,3.8764,3.8759,3.8755,3.8748,3.8746,3.8739,3.8731,3.8724,3.8714,3.871,3.8702,3.87,3.8705,3.8704,3.8702,3.8702,3.8695,3.8694,3.8696,3.8696,3.8696,0,3.8793,3.8789,3.8782,3.8779,3.8775,3.8769,3.8765,3.876,3.8756,3.8748,3.8744,3.8736,3.873,3.8718,3.8711,3.8703,3.8701,3.8699,3.8699,3.8701,3.8701,3.8701,3.8701,3.8699,3.8699,3.8699,3.8699,0,3.8789,3.8787,3.8782,3.8776,3.8772,3.8766,3.8761,3.8758,3.8752,3.8747,3.874,3.8735,3.8725,3.8717,3.8709,3.8703,3.87,3.8699,3.8698,3.8699,3.8702,3.8701,3.8705,3.8699,3.8699,3.8699,3.8699,3.8699,3.8787,3.8784,3.8778,3.8772,3.8768,3.8763,3.8759,3.8754,3.8749,3.8741,3.8738,3.873,3.8723,3.8711,3.8706,3.87,3.8699,3.8698,3.8697,3.8697,3.8697,3.8704,3.8698,3.8698,3.8698,3.8698,3.8698,0,3.8783,3.8779,3.8774,3.8767,3.8763,3.8761,3.8755,3.8751,3.8745,3.8739,3.8733,3.8725,3.8718,3.8711,3.8703,3.8699,3.8697,3.8697,3.8697,3.8696,3.8698,3.87,3.8699,3.8699,3.8699,3.8699,3.8699,3.8699,3.878,3.8774,3.8772,3.8764,3.876,3.8753,3.875,3.8745,3.8741,3.8732,3.8726,3.8722,3.8716,3.8707,3.87,3.8698,3.8695,3.8696,3.8693,3.8696,3.8696,3.8696,3.8697,3.8695,3.8695,3.8691,3.8691,3.8691]}]]